Regional Weather Roundup
Issued by NWS Sterling, VA

Home | Current Version | Previous Version | Graphics & Text | Print | Product List | Glossary On
Versions: 1 2 3 4 5 6 7 8 9 10 11 12 13 14 15 16 17 18 19 20 21 22 23 24 25 26 27 28 29 30 31 32 33 34 35 36 37 38 39 40 41 42 43 44 45 46 47 48 49 50
000
ASUS41 KLWX 272210
RWRLWX

REGIONAL WEATHER ROUNDUP
NATIONAL WEATHER SERVICE BALTIMORE MD/WASHINGTON DC
500 PM EST SAT DEC 27 2014

Note: "FAIR" indicates few or no clouds below 12,000 feet
with no significant weather and/or obstructions to visibility.
 TC=TEMPERATURE CELSIUS

 * =Non NWS site. Station does not report precipitation (e.g. rain,
    snow, etc.), thunder, or fog.

DCZ001-MDZ009-015-VAZ040>042-051-053>054-272300-
WASHINGTON METRO

CITY           SKY/WX    TMP DP  RH WIND       PRES   REMARKS
WASHINGTON NAT MOCLDY    56  31  38 SE5       30.19R
DULLES         MOCLDY    55  25  31 S6        30.17S
ANDREWS AFB    CLEAR     51  32  47 SE5       30.18R
FT BELVOIR     CLEAR     52  34  50 CALM      30.18S
QUANTICO       CLEAR     46  36  68 N3        30.20S
COLLEGE PARK*  CLEAR     55  30  38 CALM      30.18R
LEESBURG*      CLEAR     54  32  43 SW3       30.18R
GAITHERSBURG*  CLEAR     54  28  37 SE6       30.21R

$$

MDZ006>007-011-014-272300-
BALTIMORE METRO

CITY           SKY/WX    TMP DP  RH WIND       PRES   REMARKS
BWI AIRPORT    MOCLDY    52  29  41 S3        30.17R
MD SCIENCE CTR   N/A     50  33  52 MISG      30.17R
MARTIN STATE   PTCLDY    46  39  76 CALM      30.19S
ANNAPOLIS      CLEAR     43  39  86 SE5       30.19R
FORT MEADE*    CLEAR     50  32  50 S5        30.20R

$$

MDZ012-015-019>023-272300-
MARYLAND EASTERN SHORE

CITY           SKY/WX    TMP DP  RH WIND       PRES   REMARKS
OCEAN CITY     CLEAR     48  40  73 SW7       30.21F
SALISBURY      CLEAR     54  35  48 S6        30.20R
BAY BRIDGE AP*   N/A     48  36  61 CALM      30.19S
CAMBRIDGE*     CLEAR     52  39  62 S6        30.19S
EASTON*        CLEAR     52  45  76 CALM      30.22S

$$

MDZ017>025-272300-
SOUTHERN MARYLAND

CITY           SKY/WX    TMP DP  RH WIND       PRES   REMARKS
PATUXENT RIVER MOCLDY    47  34  60 S7        30.19F
ST INIGOES     CLEAR     47  37  68 CALM      30.20R
LEONARDTOWN*   CLEAR     50  36  57 SE5       30.21S

$$

MDZ003>005-272300-
NORTH CENTRAL MARYLAND

CITY           SKY/WX    TMP DP  RH WIND       PRES   REMARKS
FREDERICK*     CLEAR     54  27  35 W5        30.19R
HAGERSTOWN APT CLEAR     53  30  41 S3        30.14R
WESTMINSTER*   CLEAR     54  27  35 S5        30.15R

$$

MDZ501>502-272300-
WESTERN MARYLAND

CITY           SKY/WX    TMP DP  RH WIND       PRES   REMARKS
OAKLAND*       PTCLDY    50   5  16 S9        30.13R
CUMBERLAND*    CLEAR     57  28  33 S3        30.16R

$$

VAZ025>031-272300-
SHENANDOAH VALLEY

CITY           SKY/WX    TMP DP  RH WIND       PRES   REMARKS
WINCHESTER*    CLEAR     52  27  37 SE3       30.15S
FRONT ROYAL*   FAIR      55  28  35 CALM      30.14S
LURAY*         FAIR      57  28  33 CALM      30.15F
NEW MARKET*    FAIR      47  35  61 CALM      30.15S
STAUNTON*      CLEAR     57  21  24 S5        30.18S
WAYNESBORO*    FAIR      55  22  27 MISG      30.16S

$$

WVZ021-048>050-054>055-272300-
EASTERN WEST VIRGINIA PANHANDLE

CITY           SKY/WX    TMP DP  RH WIND       PRES   REMARKS
MARTINSBURG    CLEAR     56  24  29 S5        30.15R
PETERSBURG*    CLEAR     48  33  55 CALM      30.14R

$$

VAZ036>039-050-272300-
CENTRAL FOOTHILLS

CITY           SKY/WX    TMP DP  RH WIND       PRES   REMARKS
CHARLOTTESVILL CLEAR     57  31  37 S5        30.17R
CULPEPER*      CLEAR     52  34  50 CALM      30.19R
ORANGE*        CLEAR     52  37  58 CALM      30.20R
GORDONSVILLE*  FAIR      56  33  41 SW3       30.18R
WARRENTON*     FAIR      49  41  72 CALM      30.18R

$$

VAZ055>057-272300-
NORTH AND CENTRAL PIEDMONT

CITY           SKY/WX    TMP DP  RH WIND       PRES   REMARKS
FREDERICKSBRG* CLEAR     56  38  49 CALM      30.17S
STAFFORD*      CLEAR     54  26  34 CALM      30.22S

$$

NCZ024-NYZ072-PAZ021-071-VAZ022-071-272300-
OTHER REGIONAL OBSERVATIONS

CITY           SKY/WX    TMP DP  RH WIND       PRES   REMARKS
NEW YORK CITY  CLEAR     51  34  52 S8        30.18F
PHILADELPHIA   MOCLDY    54  28  36 S6        30.17F
PITTSBURGH     MOCLDY    56  24  29 S7        30.08R
ROANOKE        PTCLDY    60  22  23 SE6       30.18S
RICHMOND       MOCLDY    56  36  47 S6        30.19S
RALEIGH        PTCLDY    55  37  50 SW5       30.23S

$$

ANZ530>537-272300-
MARINE OBSERVATIONS

STATION/POSITION TIME  TEMP    WIND        PRES
                       AIR SEA DIR/SP/G
                 (UTC) (F)     (DEG/KT/KT) (MB)
THOMAS PT LIGHT  2200   46 43  220/  4/  4 1023.5R
BALT KEY BRIDGE  2200   51     140/  8/ 10 1021.6R
COVE POINT       2200   46     190/ 12/ 13 1022.3S
LEWISETTA        2200   45 45     CALM     1022.6R
SOLOMONS ISLAND  2200      44                N/A
PINEY POINT      2200          110/  3/  4   N/A

$$




USA.gov is the U.S. government's official web portal to all federal, state and local government web resources and services.